User: anonymous   Login
Location: Unspecified
(0.0000°N, 0.0000°E)
Time: 11:22:15
(UTC+00:00)
Language:

ICESAT-2 - Orbit

View from above orbital plane
View from above orbital plane
View from above satellite
View from above satellite

Ground track
Ground track

The orbit data is extracted from the following two-line orbital elements,

1 43613U 18070A   19141.81546980 +.00000224 +00000-0 +79013-5 0  9993
2 43613 091.9976 315.6121 0003312 085.0312 275.1315 15.28273376037926
Epoch (UTC): 21 May 2019 19:34:16
Eccentricity: 0.0003312
inclination: 91.9976°
perigee height: 479 km
apogee height: 483 km
right ascension of ascending node: 315.6121°
argument of perigee: 85.0312°
revolutions per day: 15.28273376
mean anomaly at epoch: 275.1315°
orbit number at epoch: 3792

The dashed part of the orbit path shows where the satellite is in the earth's shadow,  

DLR